Miscellaneous Local Product
Issued by NWS Hastings, NE

Home | Current Version | Previous Version | Graphics & Text | Print | Product List | Glossary On
Versions: 1 2 3 4 5 6 7 8 9 10 11 12 13 14 15 16 17 18 19 20 21 22 23 24 25 26 27 28 29 30 31 32 33 34 35 36 37 38 39 40 41 42 43 44 45 46 47 48 49 50
000
AXUS43 KGID 160602
MISGRI

GID CWA HOURLY WEATHER ROUNDUP
NATIONAL WEATHER SERVICE HASTINGS NE
1200 AM CST TUE JAN 16 2018

NOTE: "FAIR" INDICATES FEW OR NO CLOUDS BELOW 12,000 FEET WITH NO
SIGNIFICANT WEATHER AND/OR OBSTRUCTIONS TO VISIBILITY.

...SOUTH CENTRAL NEBRASKA...

CITY           SKY/WX    TMP DP  RH WIND       PRES   REMARKS
GRAND ISLAND   CLEAR     -1  -9  68 NW20G25   30.70R WCI -23
KEARNEY        CLEAR     -1  -9  68 N16G28    30.70S WCI -21
HASTINGS       PTCLDY     0  -9  65 N15       30.69S WCI -19
ORD            CLEAR     -2 -10  69 N16       30.70R WCI -23
YORK           CLEAR      0  -6  78 N13       30.69S WCI -18
AURORA         CLEAR     -1  -9  69 N20       30.69S WCI -23
LEXINGTON      CLEAR      2  -8  63 NW15      30.70S WCI -17
HOLDREGE       CLEAR      1  -6  71 N17G24    30.68S WCI -19
HEBRON         PTCLDY     0  -6  76 NW5       30.73S WCI -10

...NEBRASKA PANHANDLE...

CITY           SKY/WX    TMP DP  RH WIND       PRES   REMARKS
CHADRON        CLEAR    -11 -17  75 SW5       30.71S WCI -23
ALLIANCE       CLEAR    -12 -15  86 NW5       30.62R WCI -24
SCOTTSBLUFF    CLEAR     -4  -9  79 NW5       30.63R WCI -15
SIDNEY         CLEAR     -3  -7  82 NW7       30.58S WCI -16

...WESTERN AND NORTH CENTRAL NEBRASKA...

CITY           SKY/WX    TMP DP  RH WIND       PRES   REMARKS
VALENTINE      CLEAR     -5 -14  65 NW10      30.73R WCI -23
AINSWORTH      CLEAR     -4 -11  74 N20       30.70R WCI -28
ONEILL         CLOUDY    -4  -9  77 NW17G23   30.71R WCI -26
BROKEN BOW     CLEAR     -2 -12  62 N18       30.68R WCI -24
IMPERIAL       CLEAR      1  -6  72 NW12      30.66S WCI -16
NORTH PLATTE   CLEAR     -1 -11  62 NW10      30.70S WCI -17
MCCOOK         CLEAR      3  -6  66 N17       30.71S WCI -17

...EASTERN NEBRASKA...

CITY           SKY/WX    TMP DP  RH WIND       PRES   REMARKS
NORFOLK        CLOUDY    -3  -9  75 NW17      30.69R WCI -24
SO SIOUX CITY  MOCLDY    -3 -10  72 NW22      30.71S WCI -27
TEKAMAH        PTCLDY    -2 -11  65 NW17G26   30.72S WCI -23
COLUMBUS       CLOUDY    -2  -9  72 NW16      30.71S WCI -23
ALBION         MOCLDY    -2  -9  70 NW15G25   30.69R WCI -22
OMAHA EPPLEY   CLOUDY    -1  -9  68 NW20      30.70F WCI -23
OFFUTT AFB     MOCLDY    -2 -11  64 NW9       30.71R WCI -18
MILLARD        CLOUDY     1  -7  71 NW7       30.72S WCI -12
LINCOLN        PTCLDY     0 -10  63 NW16      30.72F WCI -20
NEBRASKA CITY  PTCLDY    -2  -9  74 NW12      30.70S WCI -20
BEATRICE       CLEAR      0  -7  73 NW13      30.71F WCI -18
FALLS CITY     CLEAR     -2 -11  65 NW13      30.71S WCI -20

...NORTHERN KANSAS...

CITY           SKY/WX    TMP DP  RH WIND       PRES   REMARKS
GOODLAND       CLEAR      0  -6  76 NW12      30.63R WCI -17
HILL CITY      CLEAR      3  -5  69 NW8       30.73R WCI -10
NORTON         CLEAR      1  -9  60 NW10      30.70S WCI -14
PHILLIPSBURG   CLEAR      5  -6  61 NW14      30.75S WCI -12
SMITH CENTER     N/A      1   7 100 NW10      30.74S WCI -14
BELOIT         CLEAR      1   7 100 CALM      30.76S
HAYS           CLEAR      3  -5  69 N13       30.74S WCI -14
RUSSELL        CLEAR    N/A N/A N/A N13       30.72F
CONCORDIA      PTCLDY     1  -6  72 NW8       30.72S WCI -13
SALINA         CLEAR      5  -3  69 NW10      30.77R WCI -10
TOPEKA         CLEAR      2  -7  66 NW12      30.74S WCI -15



USA.gov is the U.S. government's official web portal to all federal, state and local government web resources and services.